| time (UTC) | temp C | wind direction | speed KPH | gust KPH | rain 1hr cm | rain 24hr cm | rain mn cm | humidity % | barometer mb |
| 20260507192104 | 16 | 149 | 6.4 | 11.3 | 0.00 | 0.10 | 0.00 | 27 | 1011.7 |
| 20260507191604 | 16 | 160 | 4.8 | 9.7 | 0.00 | 0.10 | 0.00 | 32 | 1011.7 |
| 20260507191104 | 16 | 165 | 6.4 | 11.3 | 0.00 | 0.10 | 0.00 | 34 | 1011.8 |
| 20260507190104 | 16 | 149 | 4.8 | 19.3 | 0.00 | 0.10 | 0.00 | 31 | 1011.7 |
| 20260507185604 | 16 | 192 | 3.2 | 4.8 | 0.00 | 0.10 | 0.00 | 32 | 1011.7 |
| 20260507185104 | 16 | 207 | 3.2 | 4.8 | 0.00 | 0.10 | 0.00 | 34 | 1011.6 |
| 20260507184604 | 16 | 188 | 1.6 | 4.8 | 0.00 | 0.10 | 0.00 | 35 | 1011.5 |
| 20260507184104 | 17 | 168 | 3.2 | 8.0 | 0.00 | 0.10 | 0.00 | 38 | 1011.4 |
| 20260507183604 | 17 | 172 | 4.8 | 9.7 | 0.00 | 0.10 | 0.00 | 40 | 1011.4 |
| 20260507183104 | 17 | 178 | 4.8 | 8.0 | 0.00 | 0.10 | 0.00 | 42 | 1011.4 |
| 20260507182603 | 17 | 188 | 4.8 | 9.7 | 0.00 | 0.10 | 0.00 | 43 | 1011.4 |
| 20260507181105 | 17 | 174 | 6.4 | 12.9 | 0.00 | 0.10 | 0.00 | 44 | 1011.3 |
| 20260507180104 | 17 | 176 | 4.8 | 12.9 | 0.00 | 0.10 | 0.00 | 44 | 1011.5 |
| 20260507175604 | 17 | 186 | 8.0 | 11.3 | 0.00 | 0.13 | 0.00 | 44 | 1011.5 |
| 20260507175105 | 18 | 175 | 6.4 | 12.9 | 0.00 | 0.15 | 0.00 | 44 | 1011.5 |
| 20260507174604 | 18 | 185 | 6.4 | 12.9 | 0.00 | 0.15 | 0.00 | 44 | 1011.5 |
| 20260507174104 | 18 | 194 | 6.4 | 11.3 | 0.00 | 0.15 | 0.00 | 44 | 1011.6 |
| 20260507173104 | 18 | 200 | 4.8 | 8.0 | 0.00 | 0.15 | 0.00 | 44 | 1011.5 |
| 20260507172604 | 18 | 204 | 4.8 | 9.7 | 0.00 | 0.15 | 0.00 | 44 | 1011.6 |
| 20260507172104 | 18 | 207 | 4.8 | 8.0 | 0.00 | 0.15 | 0.00 | 44 | 1011.6 |
| 20260507171604 | 18 | 206 | 4.8 | 9.7 | 0.00 | 0.15 | 0.00 | 43 | 1011.6 |
| 20260507171104 | 18 | 275 | 1.6 | 4.8 | 0.00 | 0.15 | 0.00 | 39 | 1011.6 |
| 20260507170603 | 18 | 297 | 3.2 | 9.7 | 0.00 | 0.15 | 0.00 | 40 | 1011.6 |
| 20260507165604 | 18 | 344 | 0.0 | 4.8 | 0.00 | 0.15 | 0.00 | 38 | 1011.6 |
| 20260507165104 | 18 | 304 | 3.2 | 4.8 | 0.00 | 0.15 | 0.00 | 38 | 1011.7 |
| 20260507163604 | 18 | 19 | 6.4 | 9.7 | 0.00 | 0.15 | 0.00 | 39 | 1011.8 |
| 20260507163104 | 18 | 307 | 4.8 | 14.5 | 0.00 | 0.18 | 0.00 | 37 | 1011.9 |
| 20260507162603 | 19 | 315 | 8.0 | 19.3 | 0.00 | 0.23 | 0.00 | 42 | 1011.8 |
| 20260507162104 | 19 | 327 | 8.0 | 12.9 | 0.00 | 0.28 | 0.00 | 44 | 1011.7 |
| 20260507161104 | 19 | 328 | 3.2 | 8.0 | 0.00 | 0.38 | 0.00 | 44 | 1011.6 |
| 20260507160104 | 19 | 308 | 4.8 | 16.1 | 0.00 | 0.46 | 0.00 | 44 | 1011.7 |
| 20260507155604 | 19 | 48 | 4.8 | 12.9 | 0.00 | 0.51 | 0.00 | 44 | 1011.7 |
| 20260507155104 | 19 | 222 | 8.0 | 16.1 | 0.00 | 0.53 | 0.00 | 44 | 1011.7 |
| 20260507154604 | 19 | 312 | 6.4 | 11.3 | 0.00 | 0.61 | 0.00 | 45 | 1011.7 |
| 20260507154104 | 19 | 232 | 1.6 | 12.9 | 0.00 | 0.64 | 0.00 | 45 | 1011.8 |
| 20260507153605 | 19 | 192 | 3.2 | 8.0 | 0.00 | 0.64 | 0.00 | 44 | 1011.8 |
| 20260507152604 | 19 | 214 | 4.8 | 9.7 | 0.00 | 0.64 | 0.00 | 44 | 1011.7 |
| 20260507152104 | 19 | 195 | 4.8 | 11.3 | 0.00 | 0.64 | 0.00 | 44 | 1011.7 |
| 20260507151604 | 19 | 209 | 8.0 | 19.3 | 0.00 | 0.64 | 0.00 | 44 | 1011.8 |
| 20260507145604 | 18 | 124 | 9.7 | 19.3 | 0.00 | 0.64 | 0.00 | 44 | 1011.8 |
| 20260507145104 | 18 | 124 | 9.7 | 19.3 | 0.00 | 0.64 | 0.00 | 44 | 1011.8 |
| 20260507144604 | 19 | 134 | 9.7 | 20.9 | 0.00 | 0.64 | 0.00 | 43 | 1011.9 |
| 20260507144104 | 19 | 137 | 9.7 | 16.1 | 0.00 | 0.64 | 0.00 | 43 | 1012.0 |
| 20260507143604 | 19 | 142 | 9.7 | 19.3 | 0.00 | 0.64 | 0.00 | 43 | 1012.0 |
| 20260507143104 | 18 | 153 | 4.8 | 19.3 | 0.00 | 0.64 | 0.00 | 42 | 1012.0 |
| 20260507142604 | 18 | 137 | 11.3 | 22.5 | 0.00 | 0.64 | 0.00 | 42 | 1012.0 |
| 20260507142104 | 18 | 113 | 8.0 | 20.9 | 0.00 | 0.64 | 0.00 | 42 | 1012.1 |
| 20260507141604 | 18 | 146 | 8.0 | 19.3 | 0.00 | 0.64 | 0.00 | 41 | 1012.1 |
| 20260507140603 | 18 | 112 | 11.3 | 20.9 | 0.00 | 0.64 | 0.00 | 39 | 1012.2 |
| 20260507140104 | 18 | 136 | 14.5 | 20.9 | 0.00 | 0.64 | 0.00 | 39 | 1012.3 |
| 20260507135604 | 18 | 102 | 8.0 | 19.3 | 0.00 | 0.64 | 0.00 | 36 | 1012.4 |
| 20260507135104 | 18 | 164 | 8.0 | 19.3 | 0.00 | 0.64 | 0.00 | 38 | 1012.4 |
| 20260507134603 | 18 | 150 | 12.9 | 22.5 | 0.00 | 0.64 | 0.00 | 38 | 1012.6 |
| 20260507133105 | 18 | 93 | 9.7 | 20.9 | 0.00 | 0.64 | 0.00 | 35 | 1012.7 |
| 20260507132604 | 18 | 118 | 8.0 | 16.1 | 0.00 | 0.64 | 0.00 | 34 | 1012.9 |
| 20260507132104 | 17 | 61 | 9.7 | 22.5 | 0.00 | 0.64 | 0.00 | 32 | 1012.9 |
| 20260507131604 | 17 | 87 | 11.3 | 22.5 | 0.00 | 0.64 | 0.00 | 34 | 1012.9 |
| 20260507131104 | 17 | 49 | 8.0 | 19.3 | 0.00 | 0.64 | 0.00 | 35 | 1012.9 |
| 20260507130604 | 17 | 118 | 9.7 | 20.9 | 0.00 | 0.64 | 0.00 | 35 | 1013.0 |
| 20260507130104 | 17 | 88 | 9.7 | 16.1 | 0.00 | 0.64 | 0.00 | 32 | 1013.1 |
| 20260507125604 | 17 | 79 | 11.3 | 19.3 | 0.00 | 0.64 | 0.00 | 31 | 1013.0 |
| 20260507125104 | 17 | 34 | 11.3 | 19.3 | 0.00 | 0.64 | 0.00 | 29 | 1012.9 |
| 20260507124604 | 17 | 38 | 4.8 | 19.3 | 0.00 | 0.64 | 0.00 | 26 | 1013.0 |
| 20260507124104 | 17 | 26 | 3.2 | 12.9 | 0.00 | 0.64 | 0.00 | 25 | 1013.0 |
| 20260507123603 | 17 | 53 | 8.0 | 16.1 | 0.00 | 0.64 | 0.00 | 22 | 1013.0 |
| 20260507123104 | 17 | 55 | 9.7 | 16.1 | 0.00 | 0.64 | 0.00 | 25 | 1013.1 |
| 20260507122604 | 17 | 20 | 12.9 | 20.9 | 0.00 | 0.64 | 0.00 | 29 | 1013.0 |
| 20260507121604 | 17 | 21 | 11.3 | 19.3 | 0.00 | 0.64 | 0.00 | 26 | 1013.0 |
| 20260507121103 | 17 | 74 | 3.2 | 14.5 | 0.00 | 0.64 | 0.00 | 25 | 1013.0 |
| 20260507120604 | 17 | 356 | 4.8 | 16.1 | 0.00 | 0.64 | 0.00 | 22 | 1013.0 |
| 20260507120104 | 17 | 61 | 9.7 | 22.5 | 0.00 | 0.64 | 0.00 | 26 | 1013.0 |
| 20260507115604 | 17 | 0 | 14.5 | 22.5 | 0.00 | 0.64 | 0.00 | 25 | 1012.9 |
| 20260507114604 | 17 | 63 | 16.1 | 22.5 | 0.00 | 0.64 | 0.00 | 32 | 1013.1 |
| 20260507114104 | 18 | 30 | 8.0 | 16.1 | 0.00 | 0.64 | 0.00 | 31 | 1013.1 |
| 20260507113604 | 18 | 32 | 8.0 | 14.5 | 0.00 | 0.64 | 0.00 | 30 | 1013.2 |
| 20260507112604 | 18 | 70 | 9.7 | 19.3 | 0.00 | 0.64 | 0.00 | 23 | 1013.1 |
| 20260507111104 | 18 | 357 | 6.4 | 16.1 | 0.00 | 0.64 | 0.00 | 16 | 1013.2 |
| 20260507110604 | 18 | 346 | 14.5 | 19.3 | 0.00 | 0.64 | 0.00 | 23 | 1013.2 |
| 20260507110105 | 17 | 8 | 6.4 | 16.1 | 0.00 | 0.64 | 0.00 | 14 | 1013.2 |
| 20260507105604 | 17 | 346 | 8.0 | 12.9 | 0.00 | 0.64 | 0.00 | 20 | 1013.3 |
| 20260507104604 | 17 | 35 | 12.9 | 19.3 | 0.00 | 0.64 | 0.00 | 30 | 1013.5 |
| 20260507104104 | 17 | 346 | 8.0 | 12.9 | 0.00 | 0.64 | 0.00 | 23 | 1013.6 |
| 20260507103604 | 16 | 20 | 8.0 | 19.3 | 0.00 | 0.64 | 0.00 | 23 | 1013.6 |
| 20260507102104 | 16 | 41 | 9.7 | 19.3 | 0.00 | 0.64 | 0.00 | 22 | 1013.6 |
| 20260507101603 | 16 | 13 | 14.5 | 19.3 | 0.00 | 0.64 | 0.00 | 20 | 1013.6 |
| 20260507101104 | 16 | 41 | 11.3 | 19.3 | 0.00 | 0.64 | 0.00 | 16 | 1013.7 |
| 20260507100604 | 16 | 39 | 16.1 | 20.9 | 0.00 | 0.64 | 0.00 | 18 | 1013.6 |
| 20260507100104 | 16 | 5 | 11.3 | 16.1 | 0.00 | 0.64 | 0.00 | 15 | 1013.6 |
| 20260507094603 | 16 | 36 | 11.3 | 16.1 | 0.00 | 0.64 | 0.00 | 20 | 1013.7 |
| 20260507094104 | 16 | 24 | 9.7 | 14.5 | 0.00 | 0.64 | 0.00 | 18 | 1013.6 |
| 20260507093603 | 16 | 15 | 8.0 | 19.3 | 0.00 | 0.64 | 0.00 | 12 | 1013.6 |
| 20260507093104 | 16 | 48 | 4.8 | 14.5 | 0.00 | 0.64 | 0.00 | 3 | 1013.7 |
| 20260507092604 | 16 | 40 | 6.4 | 14.5 | 0.00 | 0.64 | 0.00 | 3 | 1013.6 |
| 20260507092104 | 15 | 62 | 11.3 | 19.3 | 0.00 | 0.64 | 0.00 | 3 | 1013.5 |
| 20260507091604 | 15 | 49 | 9.7 | 16.1 | 0.00 | 0.64 | 0.00 | 3 | 1013.6 |
| 20260507091104 | 15 | 30 | 11.3 | 19.3 | 0.00 | 0.64 | 0.00 | 3 | 1013.6 |
| 20260507090604 | 15 | 15 | 6.4 | 12.9 | 0.00 | 0.64 | 0.00 | 3 | 1013.6 |
| 20260507090105 | 15 | 23 | 12.9 | 19.3 | 0.00 | 0.64 | 0.00 | 3 | 1013.6 |
| 20260507085104 | 14 | 28 | 11.3 | 19.3 | 0.00 | 0.64 | 0.00 | 3 | 1013.6 |
| 20260507084605 | 14 | 4 | 12.9 | 22.5 | 0.00 | 0.64 | 0.00 | 3 | 1013.7 |
| 20260507084104 | 15 | 8 | 9.7 | 16.1 | 0.00 | 0.64 | 0.00 | 3 | 1013.8 |
| 20260507083604 | 15 | 347 | 6.4 | 16.1 | 0.00 | 0.64 | 0.00 | 3 | 1013.8 |
| 20260507083104 | 15 | 42 | 9.7 | 19.3 | 0.00 | 0.64 | 0.00 | 3 | 1013.8 |
| 20260507082104 | 15 | 42 | 6.4 | 12.9 | 0.00 | 0.64 | 0.00 | 3 | 1013.8 |
| 20260507081604 | 15 | 54 | 8.0 | 9.7 | 0.00 | 0.64 | 0.00 | 3 | 1013.9 |
| 20260507081104 | 15 | 33 | 6.4 | 11.3 | 0.00 | 0.64 | 0.00 | 3 | 1013.9 |
| 20260507080604 | 15 | 357 | 4.8 | 8.0 | 0.00 | 0.64 | 0.00 | 3 | 1013.9 |
| 20260507075604 | 14 | 71 | 1.6 | 4.8 | 0.00 | 0.64 | 0.00 | 3 | 1013.8 |
| 20260507075104 | 13 | 94 | 1.6 | 9.7 | 0.00 | 0.64 | 0.00 | 3 | 1013.8 |
| 20260507074604 | 13 | 26 | 4.8 | 11.3 | 0.00 | 0.64 | 0.00 | 3 | 1013.7 |
| 20260507074104 | 13 | 41 | 4.8 | 14.5 | 0.00 | 0.64 | 0.00 | 3 | 1013.7 |
| 20260507073604 | 13 | 19 | 3.2 | 9.7 | 0.00 | 0.64 | 0.00 | 3 | 1013.7 |
| 20260507073104 | 13 | 48 | 4.8 | 11.3 | 0.00 | 0.64 | 0.00 | 3 | 1013.7 |
| 20260507072604 | 13 | 46 | 4.8 | 11.3 | 0.00 | 0.64 | 0.00 | 3 | 1013.7 |
| 20260507072103 | 13 | 17 | 3.2 | 4.8 | 0.00 | 0.64 | 0.00 | 3 | 1013.7 |
| 20260507071604 | 13 | 78 | 1.6 | 4.8 | 0.00 | 0.64 | 0.00 | 3 | 1013.7 |
| 20260507071104 | 13 | 105 | 1.6 | 4.8 | 0.00 | 0.64 | 0.00 | 3 | 1013.7 |
| 20260507070604 | 13 | 132 | 1.6 | 3.2 | 0.00 | 0.64 | 0.00 | 3 | 1013.7 |
| 20260507070104 | 13 | 173 | 0.0 | 0.0 | 0.00 | 0.64 | 0.00 | 3 | 1013.6 |
| 20260507065604 | 13 | 173 | 0.0 | 0.0 | 0.00 | 0.64 | 0.00 | 3 | 1013.6 |
| 20260507065103 | 12 | 173 | 1.6 | 4.8 | 0.00 | 0.64 | 0.00 | 3 | 1013.6 |
| 20260507064103 | 12 | 171 | 3.2 | 4.8 | 0.00 | 0.64 | 0.00 | 3 | 1013.6 |
| 20260507063604 | 12 | 148 | 3.2 | 4.8 | 0.00 | 0.64 | 0.00 | 3 | 1013.6 |
| 20260507063104 | 12 | 175 | 3.2 | 4.8 | 0.00 | 0.64 | 0.00 | 3 | 1013.5 |
| 20260507062604 | 11 | 125 | 3.2 | 8.0 | 0.00 | 0.64 | 0.00 | 3 | 1013.5 |
| 20260507061603 | 11 | 164 | 3.2 | 8.0 | 0.00 | 0.64 | 0.00 | 3 | 1013.4 |
| 20260507060605 | 11 | 179 | 4.8 | 4.8 | 0.00 | 0.64 | 0.00 | 3 | 1013.3 |
| 20260507060104 | 11 | 190 | 4.8 | 8.0 | 0.00 | 0.64 | 0.00 | 3 | 1013.3 |
| 20260507055603 | 10 | 178 | 4.8 | 9.7 | 0.00 | 0.64 | 0.00 | 3 | 1013.3 |
| 20260507055105 | 10 | 176 | 6.4 | 9.7 | 0.00 | 0.64 | 0.00 | 3 | 1013.3 |
| 20260507054104 | 10 | 167 | 8.0 | 12.9 | 0.00 | 0.64 | 0.00 | 3 | 1013.3 |
| 20260507053104 | 10 | 171 | 8.0 | 11.3 | 0.00 | 0.64 | 0.00 | 3 | 1013.3 |
| 20260507052604 | 10 | 174 | 8.0 | 11.3 | 0.00 | 0.64 | 0.00 | 3 | 1013.2 |
| 20260507052104 | 10 | 168 | 8.0 | 9.7 | 0.00 | 0.64 | 0.00 | 3 | 1013.2 |
| 20260507051604 | 10 | 174 | 8.0 | 12.9 | 0.00 | 0.64 | 0.00 | 3 | 1013.2 |
| 20260507051105 | 10 | 174 | 8.0 | 11.3 | 0.00 | 0.64 | 0.00 | 3 | 1013.2 |
| 20260507050604 | 10 | 169 | 4.8 | 11.3 | 0.00 | 0.64 | 0.00 | 3 | 1013.2 |
| 20260507050104 | 10 | 157 | 6.4 | 9.7 | 0.00 | 0.64 | 0.00 | 3 | 1013.2 |
| 20260507045604 | 10 | 169 | 8.0 | 9.7 | 0.00 | 0.64 | 0.00 | 3 | 1013.1 |
| 20260507045105 | 10 | 142 | 9.7 | 12.9 | 0.00 | 0.64 | 0.00 | 3 | 1013.1 |
| 20260507043604 | 11 | 191 | 3.2 | 4.8 | 0.00 | 0.64 | 0.00 | 3 | 1013.1 |
| 20260507043104 | 11 | 206 | 4.8 | 9.7 | 0.00 | 0.64 | 0.00 | 3 | 1013.1 |
| 20260507042604 | 11 | 155 | 4.8 | 8.0 | 0.00 | 0.64 | 0.00 | 3 | 1013.0 |
| 20260507041604 | 11 | 170 | 6.4 | 11.3 | 0.00 | 0.64 | 0.00 | 3 | 1013.0 |
| 20260507041103 | 11 | 157 | 4.8 | 9.7 | 0.00 | 0.64 | 0.00 | 3 | 1013.0 |
| 20260507040604 | 11 | 174 | 4.8 | 12.9 | 0.00 | 0.64 | 0.00 | 3 | 1013.0 |
| 20260507040104 | 11 | 167 | 4.8 | 11.3 | 0.00 | 0.64 | 0.00 | 3 | 1013.0 |
| 20260507035604 | 11 | 184 | 4.8 | 9.7 | 0.00 | 0.64 | 0.00 | 3 | 1012.9 |
| 20260507035103 | 11 | 155 | 4.8 | 9.7 | 0.00 | 0.64 | 0.00 | 3 | 1012.9 |
| 20260507034604 | 11 | 168 | 4.8 | 11.3 | 0.00 | 0.64 | 0.00 | 3 | 1012.9 |
| 20260507034104 | 11 | 180 | 6.4 | 9.7 | 0.00 | 0.64 | 0.00 | 3 | 1012.9 |
| 20260507033604 | 11 | 161 | 8.0 | 9.7 | 0.00 | 0.64 | 0.00 | 3 | 1012.8 |
| 20260507033104 | 11 | 174 | 6.4 | 11.3 | 0.00 | 0.64 | 0.00 | 3 | 1012.9 |
| 20260507032103 | 11 | 164 | 8.0 | 11.3 | 0.00 | 0.64 | 0.00 | 3 | 1012.8 |
| 20260507031604 | 11 | 171 | 3.2 | 8.0 | 0.00 | 0.64 | 0.00 | 3 | 1012.9 |
| 20260507030604 | 11 | 154 | 4.8 | 8.0 | 0.00 | 0.64 | 0.00 | 3 | 1012.8 |
| 20260507030104 | 11 | 159 | 4.8 | 11.3 | 0.00 | 0.64 | 0.00 | 3 | 1012.9 |
| 20260507025604 | 11 | 162 | 6.4 | 9.7 | 0.00 | 0.64 | 0.00 | 3 | 1012.9 |
| 20260507025104 | 11 | 189 | 4.8 | 9.7 | 0.00 | 0.64 | 0.00 | 3 | 1012.9 |
| 20260507023604 | 12 | 170 | 4.8 | 11.3 | 0.00 | 0.64 | 0.00 | 3 | 1012.9 |
| 20260507023104 | 12 | 170 | 6.4 | 11.3 | 0.00 | 0.64 | 0.00 | 3 | 1012.9 |
| 20260507022604 | 12 | 154 | 8.0 | 11.3 | 0.00 | 0.64 | 0.00 | 3 | 1012.9 |
| 20260507022103 | 12 | 167 | 6.4 | 9.7 | 0.00 | 0.64 | 0.00 | 3 | 1012.8 |
| 20260507021604 | 12 | 167 | 4.8 | 11.3 | 0.00 | 0.64 | 0.00 | 3 | 1012.8 |
| 20260507021104 | 12 | 173 | 8.0 | 11.3 | 0.00 | 0.64 | 0.00 | 3 | 1012.8 |
| 20260507020604 | 12 | 170 | 4.8 | 11.3 | 0.00 | 0.64 | 0.00 | 3 | 1012.8 |
| 20260507020104 | 12 | 169 | 6.4 | 9.7 | 0.00 | 0.64 | 0.00 | 3 | 1012.8 |
| 20260507015604 | 12 | 184 | 6.4 | 9.7 | 0.00 | 0.64 | 0.00 | 3 | 1012.9 |
| 20260507015104 | 12 | 173 | 8.0 | 11.3 | 0.00 | 0.64 | 0.00 | 3 | 1012.9 |
| 20260507014604 | 12 | 157 | 4.8 | 9.7 | 0.00 | 0.64 | 0.00 | 3 | 1013.0 |
| 20260507014104 | 12 | 189 | 4.8 | 4.8 | 0.00 | 0.64 | 0.00 | 3 | 1013.0 |
| 20260507013604 | 12 | 172 | 4.8 | 9.7 | 0.00 | 0.64 | 0.00 | 3 | 1013.1 |
| 20260507013104 | 12 | 175 | 8.0 | 11.3 | 0.00 | 0.64 | 0.00 | 3 | 1013.2 |
| 20260507012104 | 12 | 164 | 4.8 | 11.3 | 0.00 | 0.64 | 0.00 | 3 | 1013.2 |
| 20260507011604 | 12 | 187 | 4.8 | 8.0 | 0.00 | 0.64 | 0.00 | 3 | 1013.2 |
| 20260507011104 | 12 | 176 | 3.2 | 8.0 | 0.00 | 0.64 | 0.00 | 3 | 1013.2 |
| 20260507010103 | 12 | 153 | 3.2 | 9.7 | 0.00 | 0.64 | 0.00 | 3 | 1013.3 |
| 20260507005104 | 12 | 148 | 4.8 | 8.0 | 0.00 | 0.64 | 0.00 | 3 | 1013.4 |
| 20260507003604 | 12 | 170 | 3.2 | 8.0 | 0.00 | 0.64 | 0.00 | 3 | 1013.5 |
| 20260507002604 | 12 | 190 | 3.2 | 4.8 | 0.00 | 0.64 | 0.00 | 3 | 1013.5 |
| 20260507002124 | 12 | 169 | 1.6 | 8.0 | 0.00 | 0.64 | 0.00 | 3 | 1013.5 |
| 20260507001104 | 12 | 175 | 3.2 | 4.8 | 0.00 | 0.64 | 0.00 | 3 | 1013.6 |
| 20260507000604 | 12 | 198 | 3.2 | 4.8 | 0.00 | 0.64 | 0.00 | 3 | 1013.6 |
| 20260506235604 | 12 | 171 | 6.4 | 9.7 | 0.00 | 0.64 | 0.00 | 3 | 1013.6 |
| 20260506235104 | 12 | 198 | 4.8 | 8.0 | 0.00 | 0.64 | 0.00 | 3 | 1013.6 |
| 20260506234604 | 12 | 176 | 4.8 | 11.3 | 0.00 | 0.64 | 0.00 | 3 | 1013.5 |
| 20260506234104 | 12 | 154 | 4.8 | 11.3 | 0.00 | 0.64 | 0.00 | 3 | 1013.6 |
| 20260506233604 | 12 | 167 | 6.4 | 9.7 | 0.00 | 0.64 | 0.00 | 3 | 1013.6 |
| 20260506233104 | 12 | 166 | 4.8 | 9.7 | 0.00 | 0.64 | 0.00 | 3 | 1013.6 |
| 20260506232604 | 12 | 179 | 3.2 | 8.0 | 0.00 | 0.64 | 0.00 | 3 | 1013.5 |
| 20260506232104 | 12 | 171 | 4.8 | 9.7 | 0.00 | 0.64 | 0.00 | 3 | 1013.6 |
| 20260506231604 | 12 | 176 | 4.8 | 9.7 | 0.00 | 0.64 | 0.00 | 3 | 1013.6 |
| 20260506231104 | 12 | 164 | 3.2 | 4.8 | 0.00 | 0.64 | 0.00 | 3 | 1013.6 |
| 20260506230604 | 12 | 171 | 3.2 | 8.0 | 0.00 | 0.64 | 0.00 | 3 | 1013.7 |
| 20260506230104 | 12 | 177 | 3.2 | 8.0 | 0.00 | 0.64 | 0.00 | 3 | 1013.7 |
| 20260506225604 | 12 | 167 | 4.8 | 8.0 | 0.00 | 0.64 | 0.00 | 3 | 1013.7 |
| 20260506225104 | 12 | 174 | 4.8 | 9.7 | 0.00 | 0.64 | 0.00 | 3 | 1013.8 |
| 20260506224604 | 12 | 184 | 3.2 | 8.0 | 0.00 | 0.64 | 0.00 | 3 | 1013.8 |
| 20260506224104 | 12 | 169 | 3.2 | 8.0 | 0.00 | 0.64 | 0.00 | 3 | 1013.7 |
| 20260506223104 | 12 | 179 | 4.8 | 9.7 | 0.00 | 0.64 | 0.00 | 3 | 1013.7 |
| 20260506222604 | 12 | 188 | 4.8 | 8.0 | 0.00 | 0.64 | 0.00 | 3 | 1013.7 |
| 20260506222104 | 13 | 182 | 4.8 | 9.7 | 0.00 | 0.64 | 0.00 | 3 | 1013.8 |
| 20260506221604 | 13 | 169 | 4.8 | 9.7 | 0.00 | 0.64 | 0.00 | 3 | 1013.7 |
| 20260506221104 | 13 | 182 | 4.8 | 8.0 | 0.00 | 0.64 | 0.00 | 3 | 1013.6 |
| 20260506220604 | 13 | 174 | 4.8 | 9.7 | 0.00 | 0.64 | 0.00 | 3 | 1013.6 |
| 20260506220103 | 13 | 171 | 4.8 | 8.0 | 0.00 | 0.64 | 0.00 | 3 | 1013.7 |
| 20260506215104 | 13 | 172 | 6.4 | 9.7 | 0.00 | 0.64 | 0.64 | 3 | 1013.7 |
| 20260506214604 | 13 | 174 | 3.2 | 8.0 | 0.00 | 0.64 | 0.64 | 3 | 1013.7 |
| 20260506214103 | 13 | 188 | 4.8 | 8.0 | 0.00 | 0.64 | 0.64 | 3 | 1013.7 |
| 20260506213603 | 13 | 173 | 4.8 | 8.0 | 0.00 | 0.64 | 0.64 | 3 | 1013.7 |
| 20260506212104 | 13 | 157 | 3.2 | 9.7 | 0.05 | 0.64 | 0.64 | 3 | 1013.7 |
| 20260506211604 | 13 | 168 | 4.8 | 9.7 | 0.08 | 0.64 | 0.64 | 3 | 1013.7 |
| 20260506211104 | 13 | 173 | 3.2 | 8.0 | 0.08 | 0.64 | 0.64 | 3 | 1013.7 |
| 20260506210604 | 13 | 174 | 4.8 | 9.7 | 0.10 | 0.64 | 0.64 | 3 | 1013.7 |
| 20260506210104 | 13 | 149 | 3.2 | 8.0 | 0.10 | 0.64 | 0.64 | 3 | 1013.7 |
| 20260506205104 | 13 | 168 | 3.2 | 8.0 | 0.10 | 0.64 | 0.64 | 3 | 1013.8 |
| 20260506204604 | 13 | 184 | 4.8 | 8.0 | 0.10 | 0.64 | 0.64 | 3 | 1013.8 |
| 20260506204104 | 13 | 177 | 3.2 | 8.0 | 0.10 | 0.64 | 0.64 | 3 | 1013.7 |
| 20260506203104 | 13 | 189 | 3.2 | 8.0 | 0.10 | 0.64 | 0.64 | 3 | 1013.7 |
| 20260506202104 | 13 | 33 | 3.2 | 8.0 | 0.05 | 0.61 | 0.61 | 3 | 1013.6 |
| 20260506201104 | 13 | 9 | 0.0 | 4.8 | 0.03 | 0.56 | 0.56 | 3 | 1013.6 |
| 20260506200604 | 13 | 346 | 3.2 | 8.0 | 0.00 | 0.53 | 0.53 | 3 | 1013.6 |
| 20260506200104 | 13 | 340 | 3.2 | 9.7 | 0.00 | 0.56 | 0.53 | 3 | 1013.6 |
| 20260506195604 | 13 | 351 | 6.4 | 12.9 | 0.00 | 0.56 | 0.53 | 3 | 1013.6 |
| 20260506195104 | 14 | 307 | 4.8 | 9.7 | 0.00 | 0.69 | 0.53 | 3 | 1013.5 |
| 20260506194604 | 14 | 349 | 8.0 | 16.1 | 0.00 | 0.84 | 0.53 | 3 | 1013.4 |
| 20260506194104 | 14 | 1 | 11.3 | 19.3 | 0.00 | 0.91 | 0.53 | 3 | 1013.3 |
| 20260506193605 | 14 | 2 | 8.0 | 19.3 | 0.00 | 0.99 | 0.53 | 3 | 1013.3 |